Powrót do katalogu

SECOR 5

EGRS 5

AktywnyNaukaUNKNOWN
NORAD 1506·PAYLOAD·🇺🇸 United States

Wystrzelony Aug 10, 1965 z Wallops Flight Facility

Loading…

Następne Przeloty (najbliższe 24 godziny)

TLE

ŚwieżeSource: Space-Track

Epoka: Sep 14, 2026, 13:01 UTC

1 01506U 65063A   26257.54250002 -.00000012  00000-0  12484-3 0  9998
2 01506  69.2301 113.0403 0785854  92.3907 288.2671 11.78694336628787

Śledź SECOR 5 w czasie rzeczywistym z AllMySat

Download on the App Store